Location: Taaricht
(32.5378°N, 5.4251°W)
Time: 13:08:09
(UTC+00:00)

STPSAT 2 (USA 217) - Pass Details

Date: 09 April 2020
Orbit: 622 x 646 km, 72.0° (Epoch: 16 May)

Event Time Altitude Azimuth Distance (km) Brightness Sun altitude
Rises 20:21:28 0° 196° (SSW) 2,886 7.9 -19.7°
Reaches altitude 10° 20:23:42 10° 196° (SSW) 1,982 7.1 -20.2°
Maximum altitude 20:28:09 84° 109° (ESE) 630 4.4 -21.0°
Drops below altitude 10° 20:32:38 10° 21° (NNE) 1,997 7.2 -21.9°
Sets 20:34:54 0° 20° (NNE) 2,908 8.1 -22.3°
